{"data":{"norad_id":65610,"intl_designator":"2025-207U","name":"STARLINK-35178","alt_names":[],"object_type":"PAYLOAD","status":"ACTIVE","operator":null,"country":"US","launch_date":"2025-09-13","launch_site_code":"AFWTR","launch_vehicle":null,"mission":null,"orbit_class":"UNKNOWN","rcs_meters":null,"size_class":null,"mass_kg":null,"dimensions":null,"purposes":["comms"],"wikipedia_slug":null,"has_3d_model":false,"image_url":null,"decayed_at":null,"tle_current":{"epoch":"2026-09-20T22:00:03.000096Z","epoch_age_seconds":75898,"freshness":"FRESH","line1":"1 65610U 25207U   26263.91670139 -.00019105  00000+0 -59062-3 0  9991","line2":"2 65610  97.2855 326.4601 0001536  89.5191 250.9569 15.33460832  5743","mean_motion":15.33460832,"eccentricity":0.0001536,"inclination_deg":97.2855,"raan_deg":326.4601,"arg_perigee_deg":89.5191,"mean_anomaly_deg":250.9569,"bstar":-0.00059062,"rev_number":574,"period_min":93.905235135474,"perigee_km":464.44488795061,"apogee_km":466.54725202972,"semimajor_km":6843.6330699902,"source":"CELESTRAK","updated_at":"2026-09-21T09:00:35.656734Z"}}}